Sault Ste Marie, Ontario

12:47 AM EST on November 18, 2017 (GMT -0500)
Sault Ste Marie

Weather History for CYAM - November, 2012

Change the Weather History Date:

Monday, November 5, 2012

  Actual Average Record
Temperature  
Mean Temperature 26 °F -  
Max Temperature 35 °F 38 °F 68 °F (2008)
Min Temperature 16 °F 25 °F 16 °F (2012)
Degree Days  
Heating Degree Days 40    
Moisture  
Dew Point 18 °F    
Average Humidity 67    
Maximum Humidity 93    
Minimum Humidity 45    
Precipitation  
Precipitation 0.00 in 0.12 in - ()
Sea Level Pressure  
Sea Level Pressure 30.29 in    
Wind  
Wind Speed 4 mph ()    
Max Wind Speed 10 mph    
Max Gust Speed 17 mph    
Visibility 15.0 miles    
Events      
Averages and records for this station are not official NWS values.
T = Trace of Precipitation, MM = Missing Value Source: Averaged Metar Reports

Daily Weather History Graph

Daily Weather History Graph

Search for Another Location

Airport or City:

Trip Planner

Search our weather history database for the weather conditions in past years. The results will help you decide how hot, cold, wet, or windy it might be!

Date:

Astronomy

Nov. 05, 2012 Rise Set
Actual Time 7:26 AM EST 5:16 PM EST
Civil Twilight 6:54 AM EST 5:48 PM EST
Nautical Twilight 6:18 AM EST 6:24 PM EST
Astronomical Twilight 5:43 AM EST 6:59 PM EST
Moon 10:53 PM EST (11/5) 12:45 PM EST (11/5)
Length of Visible Light 10h 54m
Length of Day
9h 50m
Waning Gibbous, 63% of the Moon is Illuminated
Nov 5
Waning Gibbous
Nov 6
Last Quarter
Nov 13
New
Nov 20
First Quarter
Nov 28
Full

Hourly Weather History & Observations

Time (EST) Temp. Windchill Dew Point Humidity Pressure Visibility Wind Dir Wind Speed Gust Speed Precip Events Conditions
12:00 AM 24.8 °F 16.9 °F 17.6 °F 74% 30.30 in 15.0 mi NE 6.9 mph - N/A   Scattered Clouds
1:00 AM 22 °F - 17 °F 73% 30.31 in 15 mi Calm Calm - -  
1:00 AM 21.2 °F - 17.6 °F 86% 30.31 in 15.0 mi Calm Calm - N/A   Scattered Clouds
2:00 AM 19.4 °F 14.3 °F 15.8 °F 86% 30.31 in 15.0 mi NW 3.5 mph - N/A   Partly Cloudy
3:00 AM 17.6 °F - 15.8 °F 93% 30.32 in 15.0 mi Calm Calm - N/A   Mostly Cloudy
4:00 AM 23.0 °F 13.9 °F 17.6 °F 80% 30.31 in 15.0 mi NNE 8.1 mph - N/A   Mostly Cloudy
5:00 AM 26.6 °F 17.5 °F 19.4 °F 74% 30.32 in 15.0 mi NE 9.2 mph - N/A   Overcast
6:00 AM 26.6 °F 17.5 °F 17.6 °F 69% 30.32 in 15.0 mi East 9.2 mph - N/A   Overcast
7:00 AM 27 °F - 18 °F 56% 30.32 in 15 mi East 6.9 mph - -   Overcast
7:00 AM 26.6 °F 17.5 °F 17.6 °F 69% 30.32 in 15.0 mi East 9.2 mph - N/A   Overcast
8:00 AM 28.4 °F 19.1 °F 17.6 °F 64% 30.33 in 15.0 mi ENE 10.4 mph - N/A   Mostly Cloudy
9:00 AM 28.4 °F 23.3 °F 17.6 °F 64% 30.33 in 15.0 mi East 4.6 mph - N/A   Overcast
10:00 AM 30.2 °F 25.4 °F 17.6 °F 60% 30.34 in 15.0 mi ESE 4.6 mph - N/A   Overcast
11:00 AM 30.2 °F 25.4 °F 17.6 °F 60% 30.34 in 15.0 mi ESE 4.6 mph 17.3 mph N/A   Overcast
12:00 PM 30.2 °F 24.3 °F 17.6 °F 60% 30.32 in 15.0 mi East 5.8 mph - N/A   Overcast
1:00 PM 31 °F - 18 °F 45% 30.30 in 15 mi NE 2.3 mph - -   Overcast
1:00 PM 32.0 °F 26.4 °F 17.6 °F 55% 30.30 in 15.0 mi NNE 5.8 mph - N/A   Overcast
2:00 PM 32.0 °F 27.5 °F 17.6 °F 55% 30.29 in 15.0 mi SSW 4.6 mph - N/A   Mostly Cloudy
3:00 PM 35.6 °F 31.7 °F 19.4 °F 52% 30.28 in 15.0 mi Variable 4.6 mph - N/A   Mostly Cloudy
4:00 PM 33.8 °F - 19.4 °F 56% 30.26 in 15.0 mi NNW 2.3 mph - N/A   Mostly Cloudy
5:00 PM 30.2 °F 26.7 °F 17.6 °F 60% 30.25 in 15.0 mi SSW 3.5 mph - N/A   Mostly Cloudy
6:00 PM 30.2 °F 25.4 °F 19.4 °F 64% 30.25 in 15.0 mi South 4.6 mph - N/A   Mostly Cloudy
7:00 PM 29 °F - 18 °F 52% 30.25 in 15 mi SSW 3.5 mph - -  
7:00 PM 28.4 °F 24.6 °F 17.6 °F 64% 30.25 in 15.0 mi SSW 3.5 mph - N/A   Scattered Clouds
8:00 PM 28.4 °F 24.6 °F 17.6 °F 64% 30.25 in 15.0 mi SSW 3.5 mph - N/A   Partly Cloudy
9:00 PM 23.0 °F - 17.6 °F 80% 30.23 in 15.0 mi ESE 2.3 mph - N/A   Scattered Clouds
10:00 PM 28.4 °F 24.6 °F 19.4 °F 69% 30.22 in 15.0 mi East 3.5 mph - N/A   Mostly Cloudy
11:00 PM 26.6 °F 22.6 °F 23.0 °F 86% 30.20 in 15.0 mi NNE 3.5 mph - N/A   Overcast